Content
SEND FEEDBACK

Daily
Averages
Monthly
Summary
United States of America

BLAND, VIRGINIA


Home > North America > United States > Virginia
Elevation: 200 feet     Latitude: 37 06N     Longitude: 081 07W

WEATHER
 
SELECT A DAY
Number of Records: 207,667;   Date Range: 1/1/95 - 7/27/14
 
SHARE

PRINT THIS DATA

[ ← Previous Day ]
WEATHER ALMANAC - JANUARY 3, 2013
[ Next Day → ]
[ °C ]   °F
Weather ElementAverageHighLow
Temperature28.6 °F34 °F (2:52 pm)26.1 °F (6:52 am)
Dewpoint20.5 °F24.1 °F (4:52 am)16 °F (1:52 pm)
Humidity72.8 %89 % (4:52 am)52 % (3:52 pm)
Barometer30.20 in30.27 in (10:52 pm)30.09 in (5:19 am)
Wind Speed5.7 mph10.4 mph (3:52 pm)
Weather ElementAverage
Visibility9.5 mi
Wind DirectionWSW (246.5 °)

Weather ElementTotal
Precipitation---
Heating Degree Days35 (Base 65)
Averaged from 26 records on January 3, 2013
WEATHER CONDITIONS BREAKOUT
WIND DIRECTION BREAKOUT
WEATHER BY HOUR - JANUARY 3, 2013
[ °C ]   °F
Local TimeTemperatureDewpointHumidityBarometerVisibilityWind DirectionWind SpeedGust SpeedPrecipitationEventsConditions
2:52 AM27.0 °F23.0 °F85 %30.16 in10.0 miCalmOvercast
3:52 AM27.0 °F23.0 °F85 %30.15 in10.0 miCalmOvercast
4:52 AM27.0 °F24.1 °F89 %30.15 in9.0 miWNW (290°)3.5 mphOvercast
5:19 AM26.6 °F23.0 °F86 %30.09 in7.0 miWNW (290°)3.5 mphOvercast
5:52 AM27.0 °F23.0 °F85 %30.17 in6.0 miWSW (240°)5.8 mphOvercast
6:52 AM26.1 °F23.0 °F88 %30.20 in6.0 miNW (320°)6.9 mphOvercast
7:47 AM26.6 °F23.0 °F86 %30.14 in10.0 miWNW (290°)3.5 mphOvercast
7:52 AM26.1 °F21.9 °F84 %30.21 in10.0 miVariable3.5 mphOvercast
8:52 AM26.1 °F21.0 °F81 %30.21 in10.0 miWNW (290°)3.5 mphOvercast
9:52 AM27.0 °F21.0 °F78 %30.22 in10.0 miWest (260°)5.8 mphScattered Clouds
10:06 AM26.6 °F21.2 °F80 %30.16 in10.0 miWest (270°)5.8 mphMostly Cloudy
10:47 AM28.4 °F21.2 °F74 %30.16 in10.0 miWest (270°)6.9 mphScattered Clouds
10:52 AM28.0 °F21.0 °F75 %30.23 in10.0 miWest (260°)6.9 mphPartly Cloudy
11:52 AM30.0 °F21.0 °F69 %30.20 in10.0 miWest (270°)8.1 mphClear
12:52 PM30.0 °F19.0 °F64 %30.19 in10.0 miWest (280°)6.9 mphClear
1:52 PM30.9 °F16.0 °F54 %30.18 in10.0 miWest (280°)8.1 mphClear
2:52 PM34.0 °F19.9 °F56 %30.17 in10.0 miWest (280°)8.1 mphClear
3:52 PM34.0 °F18.0 °F52 %30.20 in10.0 miWest (280°)10.4 mphClear
4:52 PM33.1 °F19.0 °F56 %30.22 in10.0 miWest (280°)8.1 mphClear
5:52 PM30.9 °F19.0 °F61 %30.23 in10.0 miWest (280°)4.6 mphClear
6:52 PM30.0 °F19.0 °F64 %30.25 in10.0 miWNW (290°)3.5 mphClear
7:52 PM28.9 °F18.0 °F64 %30.26 in10.0 miWest (280°)6.9 mphClear
8:52 PM28.0 °F19.0 °F69 %30.26 in10.0 miWest (280°)4.6 mphClear
9:52 PM28.0 °F19.0 °F69 %30.26 in10.0 miWest (280°)6.9 mphClear
10:52 PM28.0 °F19.0 °F69 %30.27 in10.0 miWest (270°)8.1 mphClear
11:52 PM27.0 °F18.0 °F69 %30.27 in10.0 miWest (280°)8.1 mphClear
Hourly data recorded from KBLF, located miles away from Bland, Virginia







STORIES FROM OUR PARTNERS